RH
17 17 34 34 35 37 38 41 46 32 42 68 60 68 85 91 82 51 19 2 5 8 11 12 10 7 6 8 9 10 11 12 12 11 10 12 12 9 7 5 4 3 3 4 6 6 6
18 18 30 31 34 38 42 44 51 74 76 65 62 75 70 25 15 7 7 8 7 7 6 7 8 9 9 9 6 6 6 5 4 4 5 5 5 3 3 3 3 3 4 6 7 8 9
15 18 29 28 32 35 38 43 46 63 54 51 46 26 11 9 7 8 6 6 6 7 13 15 14 15 16 19 18 15 14 12 8 6 5 4 4 6 4 3 4 6 6 8 9 9 11
14 16 18 30 35 44 43 34 29 19 7 22 5 4 5 6 6 7 9 10 14 16 15 13 12 12 12 13 13 13 14 15 14 16 14 12 13 11 8 8 8 8 8 9 10 11 13
11 21 27 34 42 40 37 27 15 11 9 2 2 4 5 6 8 11 12 15 13 12 10 9 9 9 9 11 12 13 12 13 14 14 15 15 14 15 13 12 10 9 11 11 12 15 14
14 34 28 43 44 43 26 18 13 10 1 2 3 5 7 9 10 11 12 12 10 9 7 7 8 8 8 8 9 10 12 13 13 12 13 13 14 15 16 13 14 14 18 18 17 16 18
23 28 39 46 47 39 21 14 7 1 1 2 4 6 8 9 10 12 11 9 8 8 8 7 6 5 6 7 9 10 10 10 11 14 15 16 16 16 16 16 17 18 19 19 20 22 21
24 27 40 44 46 24 12 6 1 0 2 2 4 6 8 10 12 10 8 7 9 6 3 3 4 4 4 5 6 9 13 17 12 12 13 16 18 16 15 16 16 17 17 18 20 21 21
23 32 34 33 25 18 6 1 1 2 2 4 6 7 9 11 9 8 7 6 6 6 7 6 7 7 6 6 4 7 12 19 22 21 14 14 14 13 12 13 14 14 13 12 13 15 17
22 32 33 21 18 11 2 1 1 3 4 6 7 8 10 6 6 6 6 6 7 8 8 8 9 8 8 8 7 5 6 10 18 22 22 18 16 15 13 12 12 11 14 14 13 12 12
30 31 31 17 8 6 1 2 2 4 4 7 9 8 6 6 4 6 6 7 8 8 8 7 8 8 8 8 8 7 6 6 8 16 23 26 25 26 25 23 21 20 18 16 15 16 17
36 32 28 11 8 2 1 3 3 4 5 9 8 6 5 5 5 6 8 9 9 8 8 7 8 8 7 6 6 6 6 6 9 11 16 19 19 19 19 19 20 20 18 18 20 21 21
49 36 27 5 7 2 2 5 4 4 7 8 6 6 5 5 5 6 8 9 9 10 9 9 9 8 6 5 4 5 11 12 12 14 15 13 12 13 11 12 13 19 20 22 23 23 22
56 37 28 5 6 2 2 7 8 8 8 7 6 5 5 5 6 7 8 8 9 9 10 8 6 4 4 4 8 10 11 13 14 13 14 22 24 26 28 28 28 27 27 28 27 26 26
57 42 29 8 6 2 2 6 8 8 7 7 6 6 6 5 6 6 6 8 9 8 5 2 3 6 8 10 12 14 13 16 30 29 26 25 31 32 32 32 32 36 32 34 33 31 30
52 51 30 13 6 2 2 4 6 6 6 6 6 6 5 5 6 6 7 6 5 2 3 10 15 15 14 17 18 22 34 35 30 22 20 25 28 33 35 34 35 35 33 33 34 34 34
49 57 36 22 7 2 3 2 3 4 5 6 6 5 5 5 6 6 4 3 1 7 16 28 30 23 18 21 28 35 35 32 28 30 34 38 36 32 31 32 32 33 35 36 36 40 40
41 59 44 29 14 3 2 2 2 3 5 5 4 4 4 5 5 4 2 1 11 16 26 28 25 24 26 27 31 34 34 28 30 33 37 44 44 45 44 44 45 48 48 48 49 46 52
35 53 48 35 22 8 2 3 3 3 4 4 4 4 5 5 4 3 2 15 21 21 26 23 20 22 24 25 24 31 34 34 35 36 37 39 41 41 39 37 39 46 53 52 52 52 60
26 48 53 38 30 21 4 3 3 3 3 3 3 4 4 4 3 4 14 24 22 26 24 18 12 15 18 22 33 29 33 32 29 33 33 38 45 48 49 48 46 52 57 56 58 62 63
25 45 50 42 33 26 15 3 3 3 3 3 3 3 3 3 5 12 22 28 28 26 19 11 12 14 18 24 22 22 18 17 21 24 27 37 47 43 45 46 44 47 61 58 62 67 73
33 33 42 42 34 26 25 10 4 3 3 3 3 3 3 6 10 13 25 30 21 13 11 12 13 16 18 18 18 15 17 17 18 23 26 28 34 36 38 41 44 43 57 67 66 79 82
35 37 42 40 31 24 22 19 10 5 3 3 4 6 6 8 10 14 23 22 13 11 13 14 15 17 17 16 14 16 18 17 17 22 25 30 37 39 34 39 43 50 49 53 67 75 79
25 39 41 43 34 23 21 20 16 12 8 7 8 10 10 12 10 15 17 15 12 12 14 14 16 16 18 17 17 18 17 17 20 23 29 42 41 36 33 41 40 48 51 56 63 71 72
19 33 40 41 37 24 23 20 16 11 10 10 12 10 10 10 10 12 13 14 13 13 13 14 15 16 17 18 17 18 19 21 22 26 36 43 37 33 36 38 42 51 45 54 56 59 53
21 21 33 38 36 28 24 21 17 14 13 12 13 13 14 15 15 14 14 14 14 13 14 14 15 16 18 19 20 21 22 23 23 27 40 36 36 37 39 48 52 58 50 50 49 50 54
21 22 21 34 34 29 25 24 20 16 14 13 13 15 16 17 19 15 14 15 14 15 16 17 19 21 23 23 23 24 24 24 23 28 33 34 38 43 49 56 56 67 62 54 56 59 59
23 20 19 21 36 31 28 23 21 20 18 18 16 14 15 18 19 18 18 18 18 18 20 21 22 23 23 23 24 24 24 23 20 23 29 36 46 51 52 63 64 73 61 64 62 62 63
42 27 19 19 26 39 32 26 20 18 19 20 20 18 16 16 16 17 17 18 18 19 20 21 20 21 21 22 23 22 22 18 14 15 32 52 56 57 65 73 83 74 71 73 66 65 67
Wind_Speed
16 16 14 12 13 9 6 2 7 7 9 10 17 15 15 12 13 14 14 15 21 24 27 28 28 28 27 26 25 24 22 22 21 18 19 19 16 15 14 11 11 14 14 13 11 10 9
16 16 15 13 12 7 7 3 7 7 13 17 19 15 10 11 14 17 25 30 34 36 37 35 33 32 32 30 25 25 23 22 21 20 19 18 18 16 14 14 14 13 14 12 10 10 10
17 17 16 13 11 11 10 2 4 12 14 17 16 12 11 19 27 34 37 38 39 37 37 38 35 33 30 28 27 25 24 22 20 18 16 15 14 14 13 13 11 11 10 8 7 8 8
17 16 13 14 10 11 8 3 13 10 10 13 11 19 27 34 40 40 39 37 37 37 36 33 31 29 28 26 24 22 21 20 18 17 16 14 12 11 10 9 6 6 6 8 10 11 9
16 12 12 11 15 8 5 6 8 10 10 15 28 32 39 42 42 40 38 38 36 34 32 30 28 26 23 21 21 19 17 16 14 13 11 11 10 8 5 5 5 6 7 7 6 4 4
17 12 14 15 13 6 4 7 11 12 22 33 37 41 43 42 40 37 37 36 34 31 29 27 25 23 20 18 17 15 13 13 13 11 10 9 8 6 6 7 9 9 7 6 6 6 6
18 15 13 17 13 7 10 15 17 24 34 37 40 41 40 38 35 35 34 33 31 30 27 24 24 19 17 16 13 12 10 8 8 10 10 9 8 9 9 8 8 6 7 8 9 9 8
19 15 16 14 10 10 16 22 26 32 35 37 38 38 37 34 34 34 32 30 27 25 24 22 18 16 14 13 11 8 6 5 5 5 5 6 6 6 6 5 4 3 5 7 8 10 10
19 17 16 14 14 16 23 30 32 34 35 36 36 34 32 33 33 32 29 26 23 21 16 15 13 11 8 7 8 7 3 1 2 4 6 8 9 7 6 6 6 6 7 9 10 12 14
20 17 15 14 17 23 30 33 35 35 36 35 34 34 33 33 31 30 26 22 18 15 12 8 6 5 5 5 5 4 6 3 4 5 6 9 9 9 9 9 9 10 10 10 12 13 14
21 18 16 14 20 26 34 35 35 35 34 35 36 35 34 32 28 26 22 17 12 9 6 1 1 2 4 6 7 9 10 8 7 8 9 10 11 11 12 14 14 14 14 14 15 15 16
22 21 19 18 25 31 36 35 35 37 35 35 34 32 31 28 25 21 16 12 7 4 3 3 6 8 9 11 12 11 11 10 11 11 12 13 15 16 17 17 18 17 17 17 19 19 20
23 22 20 21 28 35 39 37 36 37 36 35 32 29 28 25 21 17 14 11 8 10 8 11 14 15 15 15 14 13 12 11 11 11 12 15 16 17 18 20 20 19 18 18 19 19 21
24 23 22 23 29 37 41 39 37 37 36 33 30 27 24 22 19 16 14 13 13 13 16 17 19 18 17 15 14 10 8 7 9 10 9 9 9 9 10 11 13 14 13 14 17 19 22
25 24 24 24 29 37 43 43 39 36 34 32 29 26 24 21 19 17 16 15 15 17 18 18 16 15 13 12 9 7 7 5 2 4 4 5 6 6 6 8 10 12 14 17 19 21 23
27 25 25 25 28 36 42 44 41 38 35 33 31 28 25 21 19 18 17 16 17 17 15 11 9 8 8 7 6 3 1 1 2 5 7 7 9 10 11 12 14 16 18 20 21 23 24
28 27 26 26 27 33 40 44 44 41 39 36 33 30 27 25 22 20 17 17 16 12 9 7 6 5 4 2 2 1 0 2 6 8 9 10 11 11 13 15 17 20 22 24 25 26 28
30 29 27 27 28 31 38 43 45 44 41 38 37 34 29 26 23 21 19 17 12 10 8 4 3 4 3 3 3 2 2 3 5 6 8 10 12 15 18 20 22 24 26 27 29 32 32
32 30 28 26 29 29 35 40 43 44 43 40 37 34 31 28 25 21 18 15 13 14 10 6 5 5 4 4 4 4 4 5 7 9 11 14 17 20 22 24 26 28 28 29 31 31 31
33 30 28 27 27 29 32 38 41 43 43 40 36 34 32 29 25 19 17 15 15 15 12 9 7 5 6 6 4 2 2 4 7 9 14 19 22 26 29 31 32 30 30 32 32 32 34
36 34 30 29 29 29 31 35 39 40 40 39 37 33 31 26 22 20 19 18 18 16 15 11 9 8 8 7 4 3 5 8 11 15 18 22 26 29 33 33 31 29 29 33 33 33 34
37 34 32 30 28 29 30 32 36 38 36 36 35 33 30 27 24 22 21 20 19 18 16 13 12 11 11 10 8 8 9 11 13 18 21 26 30 34 34 37 32 29 31 32 32 34 34
38 35 33 31 30 27 29 31 31 32 34 34 32 30 28 26 23 23 24 23 21 19 18 16 15 13 12 12 11 13 14 15 17 22 26 31 34 38 40 36 30 27 28 27 25 28 30
38 35 33 32 31 30 30 31 31 31 32 32 31 29 26 26 25 26 26 25 23 21 19 18 16 14 14 14 15 17 18 18 21 24 29 34 38 44 44 40 31 32 29 26 22 24 28
39 36 34 33 32 30 31 32 32 32 31 31 30 29 27 26 25 26 27 26 24 23 21 19 18 17 17 18 19 20 21 22 25 26 31 36 42 48 47 45 34 29 31 28 28 26 30
38 37 35 34 33 33 33 33 33 32 32 32 31 28 27 26 26 26 26 26 25 24 22 22 21 20 21 22 22 24 24 26 29 31 34 39 46 49 49 45 41 36 32 32 33 36 37
38 36 35 36 34 34 35 34 34 35 33 32 31 30 28 27 27 27 27 27 26 25 24 23 23 23 24 26 27 28 28 31 33 35 37 41 48 49 46 42 38 36 38 38 39 43 45
40 39 36 36 36 34 35 35 36 35 35 34 33 32 32 30 30 30 30 29 28 27 27 26 27 28 31 32 32 33 34 36 36 37 39 45 52 48 44 39 39 38 40 42 43 45 48
41 40 39 37 37 37 35 36 37 38 37 36 34 34 34 35 34 34 33 32 32 32 32 32 33 35 36 36 37 38 39 39 39 41 42 45 47 43 43 37 40 41 42 45 49 50 53
Wind_Direction
249 254 252 258 264 285 218 220 321 261 219 184 172 167 171 174 174 169 166 156 144 140 134 131 129 125 123 124 127 134 129 129 131 135 144 148 149 148 138 140 136 138 133 134 139 153 168
246 246 252 259 262 244 218 256 276 154 150 148 160 156 162 159 159 151 137 133 130 125 122 119 115 113 109 107 108 110 114 116 118 117 116 122 124 121 122 134 139 148 157 157 168 177 184
245 243 247 247 246 222 227 269 197 129 141 152 152 140 153 147 138 135 131 128 126 124 120 115 113 110 109 112 111 106 107 109 111 113 115 121 122 125 133 143 147 161 167 173 188 206 211
241 244 247 231 253 186 204 200 143 145 134 133 146 141 140 137 133 129 127 126 125 121 117 114 111 109 111 113 113 112 110 110 110 109 110 109 115 119 128 140 150 164 185 208 205 208 218
239 219 234 232 181 196 223 181 159 150 150 147 136 137 137 135 133 130 127 125 123 120 118 115 113 111 111 113 113 112 110 110 111 114 112 114 120 119 134 164 181 197 214 226 222 238 250
212 211 213 203 200 217 205 159 144 160 142 137 138 139 139 137 132 129 128 126 124 122 120 117 114 114 115 115 116 117 120 126 129 132 133 140 146 155 178 192 191 201 212 228 244 261 266
202 207 199 197 218 230 155 151 155 141 139 144 144 143 140 135 133 130 129 129 129 125 120 117 114 111 109 107 110 116 123 129 131 133 139 145 159 172 182 183 188 199 215 225 234 250 259
203 204 197 206 225 188 155 153 149 143 146 149 149 145 141 137 136 135 133 128 124 121 119 114 111 105 99 95 91 98 113 140 156 147 148 161 182 195 192 196 205 216 236 246 244 252 269
201 193 200 208 201 173 157 154 152 150 153 152 149 147 145 143 139 135 130 129 125 120 114 109 104 95 92 86 67 60 50 120 196 205 208 208 218 223 238 247 255 265 267 266 264 258 263
201 194 203 189 187 166 160 157 157 156 156 154 152 152 150 144 140 137 136 132 125 119 121 114 97 82 56 25 16 6 343 289 256 248 231 235 245 251 254 257 263 265 273 277 281 281 276
199 192 204 190 180 166 164 160 159 161 160 159 158 155 151 146 143 145 145 143 131 128 148 93 23 305 329 328 322 309 310 302 290 275 269 267 270 270 268 269 268 269 270 273 276 280 281
198 196 199 187 178 172 168 165 165 167 167 164 162 158 154 152 151 150 149 152 155 186 200 272 287 290 294 301 302 296 287 279 282 276 271 274 276 276 274 272 273 277 281 281 277 278 278
200 196 195 184 179 174 172 169 170 172 173 171 167 164 163 164 165 168 174 189 208 240 270 275 279 283 288 291 294 294 287 278 275 277 282 286 286 281 273 269 271 273 277 279 278 277 277
201 198 192 183 182 178 176 175 175 178 179 177 173 172 175 176 179 189 205 221 241 262 270 277 281 282 284 288 291 286 276 272 273 283 288 292 298 296 291 280 277 278 280 279 280 282 287
202 199 195 186 184 181 181 182 182 184 185 184 184 186 188 191 198 212 228 242 260 272 280 283 283 280 279 279 275 271 273 282 287 309 327 334 336 334 327 317 308 302 299 293 289 287 286
202 201 198 190 187 186 187 187 189 191 193 194 195 196 198 203 213 225 237 251 261 274 281 274 274 266 263 271 275 252 208 278 322 337 340 336 331 326 319 311 305 302 300 297 295 294 291
202 202 203 194 193 192 192 191 193 196 199 202 203 206 209 216 225 233 242 255 267 266 254 262 256 249 235 210 199 222 327 342 334 337 334 331 329 326 321 319 316 312 307 303 299 297 295
203 205 203 196 199 197 197 197 197 199 202 205 210 215 219 225 231 239 250 258 246 233 227 234 225 209 192 157 141 94 42 32 16 2 353 345 341 341 338 333 327 323 314 309 305 299 298
205 206 203 203 200 202 203 203 203 203 206 211 215 220 224 230 236 243 246 230 227 219 216 225 230 207 178 161 137 118 71 38 31 24 15 3 351 345 338 334 330 326 319 306 300 302 299
206 208 205 206 206 205 206 207 208 208 211 214 218 223 229 235 241 237 220 219 217 214 219 217 212 191 181 177 167 137 58 24 10 5 356 351 349 346 338 334 333 325 317 307 304 303 302
202 207 207 205 209 209 210 209 212 213 213 216 220 225 232 237 230 220 214 210 209 218 218 202 198 192 203 210 223 261 310 320 333 342 339 337 336 334 330 329 332 323 309 303 302 301 303
202 206 208 208 209 211 212 212 212 214 216 217 221 224 230 228 220 215 212 210 212 208 201 200 197 207 217 231 249 271 290 306 321 330 327 325 324 325 329 325 326 318 305 303 306 307 307
203 205 208 208 209 212 212 211 211 213 216 219 219 220 221 219 216 214 212 212 207 204 202 201 203 217 231 245 260 269 286 307 322 320 319 319 320 322 328 327 328 316 306 308 312 307 308
204 204 209 208 208 210 210 210 208 208 208 210 211 212 212 212 210 208 209 209 209 207 208 209 218 229 243 256 268 281 295 308 310 310 314 316 317 322 327 327 331 317 313 312 312 309 310
205 205 208 209 208 209 208 209 207 206 203 202 204 206 205 207 210 211 209 209 209 211 215 222 229 240 251 263 273 284 293 301 300 303 309 313 319 322 321 320 325 306 309 308 313 314 314
206 207 208 211 209 208 209 208 207 207 204 203 202 203 203 203 208 213 212 213 214 217 221 228 236 246 257 266 276 281 288 294 296 299 306 312 318 321 318 316 318 309 309 313 315 312 314
208 208 209 211 211 210 209 209 210 211 209 207 205 205 206 207 207 212 216 217 220 225 229 237 245 254 264 269 274 280 286 290 293 298 308 314 317 318 313 311 310 301 302 307 311 311 313
210 212 211 211 213 213 212 210 212 213 215 213 211 211 211 211 211 214 218 222 227 232 239 244 252 259 265 270 276 280 285 289 291 295 306 314 316 315 312 310 306 302 304 306 307 307 308
214 215 216 214 213 214 215 213 213 215 217 217 216 217 218 219 220 223 227 232 236 240 244 250 257 261 267 272 277 282 286 290 293 295 304 315 313 312 308 312 301 302 303 304 305 307 309